Regional Weather Roundup
Issued by NWS

Home | Current Version | Previous Version | Graphics & Text | Print | Product List | Glossary On
Versions: 1 2 3 4 5 6 7 8 9 10 11 12 13 14 15 16 17 18 19 20 21 22 23 24 25 26 27
000
ASUS45 KCYS 200410
RWRWY

WYOMING REGIONAL WEATHER ROUNDUP
NATIONAL WEATHER SERVICE CHEYENNE WY
1000 PM MDT SAT APR 19 2014

NOTE:  "FAIR" INDICATES FEW OR NO CLOUDS BELOW 12,000 FEET
WITH NO SIGNIFICANT WEATHER AND/OR OBSTRUCTIONS TO VISIBILITY.

WYZ001-200500-
YELLOWSTONE NATIONAL PARK

CITY           SKY/WX    TMP DP  RH WIND       PRES   REMARKS
LK YELLOWSTONE   N/A     28  22  78 CALM      30.10R
W YELLOWSTONE  NOT AVBL

$$
WYZ002>013-054>058-071-098>099-200500-
NORTHERN WYOMING

CITY           SKY/WX    TMP DP  RH WIND       PRES   REMARKS
JACKSON        MOCLDY    45  27  49 CALM      30.05R
CODY           MOCLDY    52  21  30 S10       29.94S
GREYBULL       PTCLDY    54  28  36 SE8       29.91R
WORLAND        PTCLDY    47  27  45 CALM      29.92R
SHERIDAN         N/A     43  34  70 SW7         N/A
BUFFALO        CLEAR     46  30  53 W8        29.97R
GILLETTE       PTCLDY    48  32  53 SE12      29.96F
HULETT         FAIR      46  32  57 SE9       29.99
NEWCASTLE      FAIR      52  30  43 E13       30.00

$$
WYZ014>020-022>026-101>103-200500-
CENTRAL WYOMING

CITY           SKY/WX    TMP DP  RH WIND       PRES   REMARKS
BIG PINEY      CLEAR     39  18  42 N7        30.10R WCI  34
PINEDALE       CLEAR     37  28  70 NW8       30.11R WCI  31
DUBOIS         FAIR      39  19  45 NW7       30.07R WCI  34
LANDER         CLEAR     52  23  32 S3        29.98R
RIVERTON       CLEAR     52  14  22 NW17      29.98R
CASPER         PTCLDY    48  39  71 S5        29.98R
DOUGLAS        MOCLDY    53  41  63 E7        29.99R

$$
WYZ021-027>030-104>119-200500-
SOUTHERN WYOMING

CITY           SKY/WX    TMP DP  RH WIND       PRES   REMARKS
EVANSTON       PTCLDY    44  28  53 SW8       30.12R
KEMMERER       PTCLDY    45  30  57 SW3       30.12R
FORT BRIDGER   FAIR      47  30  51 SW8       30.14R
ROCK SPRINGS   MOCLDY    51  31  46 SW12      30.09R
DIXON          FAIR      43  36  76 E3        30.13R
RAWLINS        PTCLDY    51  33  50 SW15      30.08R
SARATOGA       FAIR      41  32  70 SE6       30.11R
LARAMIE        MOCLDY    43  37  79 S9        30.11R
CHEYENNE       PTCLDY    48  40  73 SW10      30.09S
TORRINGTON     PTCLDY    52  37  56 SE10      30.00S
PINE BLUFFS    FAIR      45  34  65 S3        30.08F

$$



USA.gov is the U.S. government's official web portal to all federal, state and local government web resources and services.